Home > Weather > Lakewood > Past weeks

Flag for USA Weather for the Past 2 Weeks in Lakewood, Colorado, USA

Now
26 °F

Passing clouds.


Feels Like: 22 °F
Forecast: 26 / 55 °F
Wind: 3 mph from Southeast

Location: Centennial Airport

Current Time: May 2, 2016 at 7:43:29 AM

Latest Report: May 2, 2016 at 6:53 AM


Visibility: 10 mi

Pressure: 30.33 "Hg (24.51 "Hg at 1683m altitude)

Humidity: 88%

Dew Point: 23 °F

Location of LakewoodLocation

Historic Weather in Lakewood — Graph

°F

Lakewood Temperature Yesterday

Maximum temperature yesterday: 37 °F (at 4:53 PM)
Minimum temperature yesterday: 32 °F (at 12:53 AM)
Average temperature yesterday: 33 °F

High & Low Weather Summary for the Past Weeks

 TemperatureHumidityPressure
High75 °F (Apr 23, 3:53 PM)100% (Apr 19, 5:53 AM)30.41 "Hg (Apr 19, 5:53 AM)
Low24 °F (May 2, 5:53 AM)17% (Apr 22, 12:53 PM)29.42 "Hg (Apr 25, 5:53 PM)
Average43 °F66%29.98 "Hg
* Reported Apr 17 5:53 AM — May 2 5:53 AM, Lakewood, Weather by CustomWeather, © 2016

Note: Actual official high and low records may vary slightly from our data, if they occured in-between our weather recording intervals... More about our weather records

Advertising

Lakewood Weather History for the Previous 24 Hours

Scroll right to see more
 ConditionsComfort  
Time TempWeatherWind HumidityBarometerVisibility
5:53 AM
Mon, May 2
24 °FPassing clouds.5 mph88%30.33 "Hg10 mi
4:53 AM25 °FClear.No wind85%30.33 "Hg10 mi
3:53 AM27 °FPassing clouds.3 mph85%30.34 "Hg10 mi
2:53 AM26 °FPassing clouds.3 mph88%30.36 "Hg10 mi
1:53 AM28 °FPassing clouds.5 mph89%30.36 "Hg10 mi
12:53 AM29 °FPassing clouds.No wind85%30.36 "Hg10 mi
11:53 PM
Sun, May 1
32 °FPassing clouds.6 mph82%30.36 "Hg10 mi
10:53 PM33 °FPassing clouds.3 mph82%30.37 "Hg10 mi
9:53 PM34 °FPassing clouds.7 mph79%30.37 "Hg10 mi
8:53 PM33 °FBroken clouds.6 mph85%30.36 "Hg10 mi
7:53 PM35 °FBroken clouds.6 mph82%30.34 "Hg10 mi
6:53 PM37 °FPartly sunny.No wind73%30.33 "Hg10 mi
5:53 PM37 °FBroken clouds.No wind73%30.33 "Hg10 mi
4:53 PM37 °FPartly sunny.5 mph82%30.33 "Hg9 mi
3:53 PM35 °FLight snow. Mostly cloudy.3 mph82%30.35 "Hg9 mi
2:53 PM34 °FDrizzle. Overcast.5 mph88%30.37 "Hg9 mi
1:53 PM34 °FDrizzle. More clouds than sun.9 mph85%30.37 "Hg7 mi
1:03 PM35 °FDrizzle. Cloudy.10 mph85%30.29 "Hg9 mi
11:53 AM33 °FDrizzle. Fog.9 mph92%30.40 "Hg3 mi
10:53 AM32 °FDrizzle. Ice fog.12 mph96%30.41 "Hg3 mi
9:53 AM32 °FLight snow. Ice fog.12 mph96%30.41 "Hg2 mi
8:53 AM32 °FLight snow. Ice fog.14 mph96%30.39 "Hg1 mi
7:53 AM32 °FLight snow. Ice fog.14 mph92%30.37 "Hg1 mi
7:00 AM32 °FLight snow. Ice fog.12 mph92%30.28 "Hg2 mi
Weather by CustomWeather, © 2016

See weather overviewHow to use our weather pages